Flag for Ireland Weather past 2 weeks in Galway, Ireland

Now
46 °F

Scattered showers. Scattered clouds.


Feels Like: 40 °F
Forecast: 46 / 49 °F
Wind: 15 mph from West

Location: Shannon Airport

Current Time: Dec 19, 2014 at 1:16:41 PM

Latest Report: Dec 19, 2014 at 12:30 PM


Visibility: N/A

Pressure: 30.09 "Hg

Humidity: 76%

Dew point: 39 °F

Location of GalwayLocation

Historic Weather in Galway — Graph

°F

Galway temperature yesterday

Maximum temperature yesterday: 55 °F (at 9:00 AM)
Minimum temperature yesterday: 46 °F (at 9:30 PM)
Average temperature yesterday: 52 °F

Past Weeks' High & Low Weather Summary

 TemperatureHumidityPressure
High55 °F (Dec 18, 9:00 AM)100% (Dec 4, 9:00 PM)30.42 "Hg (Dec 4, 9:00 PM)
Low32 °F (Dec 12, 7:00 AM)49% (Dec 10, 7:00 AM)29.27 "Hg (Dec 12, 1:30 AM)
Average45 °F88%29.93 "Hg
* Reported Dec 4 12:00 Noon — Dec 19 12:00 Noon, Galway, Weather by CustomWeather, © 2014

Note: Actual official high and low records may vary slightly from our data, if they occured in-between our weather recording intervals... More about our weather records

Advertising

Galway weather history for previous 24 hours

 ConditionsComfort  
Time TempWeatherWind HumidityBarometerVisibility
12:00 PM
Dec 19
46 °FSprinkles. Scattered clouds.18 mph76%30.09 "HgN/A
11:30 AM46 °FScattered clouds.16 mph71%30.07 "HgN/A
11:00 AM45 °FScattered clouds.13 mph87%30.07 "HgN/A
10:30 AM45 °FPassing clouds.15 mph81%30.07 "HgN/A
10:00 AM45 °FSprinkles. Scattered clouds.10 mph81%30.04 "HgN/A
9:30 AM43 °FPassing clouds.18 mph81%30.04 "HgN/A
9:00 AM45 °FSprinkles. Scattered clouds.17 mph81%30.01 "HgN/A
8:30 AM45 °FPassing clouds.16 mph76%30.01 "HgN/A
8:00 AM43 °FPassing clouds.7 mph81%29.98 "HgN/A
7:30 AM43 °FPassing clouds.10 mph81%29.95 "HgN/A
7:00 AM45 °FPassing clouds.16 mph76%29.95 "HgN/A
6:30 AM45 °FPassing clouds.16 mph76%29.92 "HgN/A
6:00 AM45 °FPassing clouds.17 mph76%29.92 "HgN/A
5:30 AM43 °FPassing clouds.16 mph87%29.89 "HgN/A
5:00 AM45 °FLight rain. Passing clouds.17 mph76%29.89 "HgN/A
4:30 AM45 °FPassing clouds.17 mph76%29.89 "HgN/A
4:00 AM45 °FLight rain. Passing clouds.15 mph81%29.89 "Hg5 mi
3:30 AM45 °FPassing clouds.12 mph81%29.89 "HgN/A
3:00 AM45 °FPassing clouds.15 mph76%29.86 "HgN/A
2:30 AM45 °FPassing clouds.8 mph76%29.86 "HgN/A
2:00 AM45 °FPassing clouds.14 mph76%29.86 "HgN/A
1:30 AM45 °FPassing clouds.10 mph76%29.86 "HgN/A
1:00 AM45 °FPassing clouds.13 mph76%29.83 "HgN/A
12:30 AM45 °FPassing clouds.10 mph81%29.83 "HgN/A
12:00 AM45 °FPassing clouds.12 mph81%29.83 "HgN/A
11:30 PM
Dec 18
46 °FPassing clouds.10 mph82%29.80 "HgN/A
11:00 PM46 °FPartly cloudy.12 mph87%29.80 "HgN/A
10:30 PM46 °FPartly cloudy.14 mph87%29.77 "HgN/A
10:00 PM46 °FPartly cloudy.14 mph93%29.77 "HgN/A
9:30 PM46 °FPartly cloudy.12 mph100%29.77 "HgN/A
9:00 PM48 °FPartly cloudy.15 mph94%29.74 "HgN/A
8:30 PM48 °FPartly cloudy.12 mph94%29.74 "HgN/A
8:00 PM48 °FPartly cloudy.10 mph94%29.74 "HgN/A
7:30 PM48 °FPartly cloudy.13 mph94%29.71 "Hg3 mi
7:00 PM48 °FPassing clouds.15 mph100%29.71 "Hg2 mi
6:30 PM48 °FPassing clouds.15 mph100%29.71 "Hg4 mi
6:00 PM50 °FPassing clouds.15 mph94%29.71 "Hg4 mi
5:30 PM50 °FPassing clouds.15 mph94%29.68 "Hg4 mi
5:00 PM50 °FPassing clouds.14 mph100%29.68 "Hg2 mi
4:30 PM50 °FDrizzle. Mostly cloudy.16 mph100%29.68 "Hg2 mi
4:00 PM52 °FDrizzle. More clouds than sun.18 mph94%29.65 "Hg2 mi
3:30 PM54 °FDrizzle. Mostly cloudy.28 mph94%29.65 "Hg2 mi
3:00 PM54 °FDrizzle. Partly sunny.29 mph100%29.65 "Hg4 mi
2:30 PM54 °FDrizzle. Partly sunny.28 mph100%29.62 "Hg3 mi
2:00 PM54 °FDrizzle. Partly sunny.29 mph100%29.65 "Hg3 mi
1:30 PM54 °FDrizzle. Partly sunny.29 mph100%29.65 "Hg4 mi
1:00 PM54 °FLight rain. Partly sunny.30 mph100%29.65 "Hg5 mi
Weather by CustomWeather, © 2014

See weather overviewHow to use our weather pages